Aeroporto :
LOGIN :

Iscrizione | Disclaimer

   EN    FR    IT 

 










Sommario :    VFR   VFR Marginale   IFR   IFR Intensivo   IFR Molto Intensivo
Visibilità : 
Base nubi : 
>= 8 km
>= 3000ft
5 / 8 km
1000 / 3000 ft
1500m / 5 km
500 / 1000 ft
800 / 1500m
200 / 500 ft
< 800m
< 200 ft
Simboli :   Temporali  Nebbia  Neve Forte  Precipitazioni Forti  Vento > 20 kt
SIGMETs :   Varie  Temporali  Ghiacco  Turbolenza  Onda orograficha  Ceneri Vulcaniche







- Altitudine del aeroporto : 102 ft
- Codice IATA : CNG
- Carte del aeroporto


LFBG - Cognac

ULTIMO METAR :
  • 182300Z AUTO 18003KT CAVOK 18/15 Q1018

METARs OBSOLETI :
  • 182230Z AUTO 21005KT CAVOK 20/16 Q1018 TEMPO BKN009
  • 182200Z AUTO 22004KT CAVOK 20/16 Q1018 TEMPO BKN009
  • 182130Z AUTO 24004KT CAVOK 20/15 Q1018 TEMPO BKN009
  • 182100Z AUTO 25004KT CAVOK 19/15 Q1018 BECMG BKN014
  • 182030Z AUTO 24005KT CAVOK 20/15 Q1018 BECMG BKN014

TAF TAF LFBG
Valido dal 18 a 21 ore il 19 a 21 ore UTC


182000Z 1821/1921 22005KT CAVOK
BECMG 1821/1823 BKN014
TEMPO 1823/1908 BKN009
BECMG 1910/1912 NSC
Nessun NOTAM noto per questo aeroporto.



MetMap, La meteo Aeronautica in un colpo d'occhio ! - Copyright ORBIFLY Dicembre 2007 - Disclaimer

ORBIFLY MET'MAP TEAM :

Programmazione e sviluppo : Alexandra Zaïnal
Concezione e sviluppo : Baudouin d'Aumeries
Co-Programmazione e sviluppo : Marc-Olivier Méhu
Supporto tecnico e logistico : Manuel Goepfert
Aiuto per la traduzione : Arnaldo La Scala

Contatto : metmap@orbifly.com




FONTI E CREDITI :

   NOAA